EW1708 Weather Reports


Display with metric or nautical units.
time (UTC)temp
F
wind
direction
speed
MPH
gust
MPH
rain 1hr
in
rain 24hr
in
rain mn
in
humidity
%
barometer
mb
20260509121306 28 280 3.0 5.0 0.00 0.00 0.00 89 1013.3
20260509120242 28 271 4.0 5.0 0.00 0.00 0.00 89 1013.2
20260509115308 27 287 3.0 6.0 0.00 0.00 0.00 89 1013.0
20260509114246 27 267 4.0 6.0 0.00 0.00 0.00 89 1012.8
20260509113222 28 280 4.0 5.0 0.00 0.00 0.00 88 1012.6
20260509112216 28 300 3.0 4.0 0.00 0.00 0.00 88 1012.4
20260509110024 30 341 4.0 7.0 0.00 0.00 0.00 87 1012.1
20260509104956 30 334 4.0 7.0 0.00 0.00 0.00 87 1012.0
20260509102833 31 347 4.0 9.0 0.00 0.00 0.00 86 1011.6
20260509101754 31 348 5.0 9.0 0.00 0.00 0.00 87 1011.5
20260509095551 32 351 5.0 8.0 0.00 0.00 0.00 86 1011.2
20260509094552 32 0 6.0 8.0 0.00 0.00 0.00 86 1011.2
20260509093531 32 10 5.0 8.0 0.00 0.00 0.00 87 1011.1
20260509091349 32 346 4.0 6.0 0.00 0.00 0.00 86 1010.7
20260509090333 33 355 4.0 7.0 0.00 0.00 0.00 87 1010.6
20260509085318 33 355 4.0 6.0 0.00 0.00 0.00 86 1010.5
20260509083136 34 0 4.0 6.0 0.00 0.00 0.00 85 1010.3
20260509082125 34 26 4.0 6.0 0.00 0.00 0.00 84 1010.1
20260509080025 35 9 5.0 8.0 0.00 0.00 0.00 84 1010.0
20260509075028 35 345 5.0 8.0 0.00 0.00 0.00 83 1009.8
20260509074025 35 9 5.0 8.0 0.00 0.00 0.00 82 1009.7
20260509070705 37 10 6.0 9.0 0.00 0.00 0.00 80 1009.3
20260509065650 38 18 6.0 9.0 0.00 0.00 0.00 80 1009.1
20260509064657 38 11 5.0 9.0 0.00 0.00 0.00 79 1009.0
20260509063659 39 9 4.0 7.0 0.00 0.00 0.00 78 1009.0
20260509061518 39 0 6.0 9.0 0.00 0.00 0.00 78 1008.8
20260509060445 40 18 5.0 7.0 0.00 0.00 0.00 77 1008.7
20260509054353 40 22 7.0 10.0 0.00 0.00 0.00 77 1008.3
20260509053316 40 0 5.0 9.0 0.00 0.00 0.00 76 1008.3
20260509050043 41 13 7.0 11.0 0.00 0.00 0.00 76 1008.0
20260509045055 40 0 5.0 9.0 0.00 0.00 0.00 78 1007.8
20260509044104 40 0 4.0 7.0 0.00 0.00 0.00 77 1007.7
20260509043053 41 0 4.0 8.0 0.00 0.00 0.00 78 1007.6
20260509042103 41 0 4.0 8.0 0.00 0.00 0.00 78 1007.5
20260509041054 41 0 4.0 6.0 0.00 0.00 0.00 78 1007.3
20260509040035 42 0 3.0 5.0 0.00 0.00 0.00 77 1007.2
20260509033910 45 0 5.0 7.0 0.00 0.00 0.00 75 1006.9
20260509032851 45 323 4.0 7.0 0.00 0.00 0.00 77 1006.7
20260509025640 47 341 3.0 4.0 0.00 0.00 0.00 71 1006.1
20260509024633 47 0 3.0 4.0 0.00 0.00 0.00 70 1006.0
20260509023630 48 345 3.0 5.0 0.00 0.00 0.00 69 1005.9
20260509022613 49 336 3.0 5.0 0.00 0.00 0.00 68 1005.7
20260509020452 51 13 3.0 5.0 0.00 0.00 0.00 65 1005.5
20260509015511 52 344 4.0 7.0 0.00 0.00 0.00 62 1005.5
20260509014523 53 11 3.0 7.0 0.00 0.00 0.00 61 1005.3
20260509013522 53 0 3.0 7.0 0.00 0.00 0.00 61 1005.3
20260509012525 53 338 4.0 9.0 0.00 0.00 0.00 61 1005.2
20260509010359 53 0 9.0 14.0 0.00 0.00 0.00 60 1005.0
20260509003214 53 15 11.0 18.0 0.00 0.00 0.00 59 1004.8
20260509002234 54 33 14.0 21.0 0.00 0.00 0.00 59 1004.7
20260509001259 54 38 16.0 27.0 0.00 0.00 0.00 58 1004.6
20260509000303 54 0 20.0 32.0 0.00 0.00 0.00 58 1004.6
20260508235257 55 20 22.0 32.0 0.00 0.00 0.00 57 1004.7
20260508234319 57 35 22.0 31.0 0.00 0.00 0.00 53 1004.5
20260508233257 59 10 24.0 33.0 0.00 0.00 0.00 48 1004.6
20260508232311 60 17 21.0 33.0 0.00 0.00 0.00 46 1004.2
20260508231253 61 5 22.0 33.0 0.00 0.00 0.00 45 1004.0
20260508230231 62 355 19.0 30.0 0.00 0.00 0.00 43 1003.6
20260508225219 62 355 23.0 34.0 0.00 0.00 0.00 44 1003.6
20260508224216 62 14 25.0 41.0 0.00 0.00 0.00 43 1003.3
20260508223229 65 5 25.0 41.0 0.00 0.00 0.00 36 1003.0
20260508222247 67 348 22.0 38.0 0.00 0.00 0.00 30 1002.2
20260508221300 69 327 19.0 33.0 0.00 0.00 0.00 26 1001.9
20260508212749 70 296 21.0 29.0 0.00 0.00 0.00 24 1001.7
20260508211759 70 290 17.0 29.0 0.00 0.00 0.00 25 1001.8
20260508210751 70 306 19.0 32.0 0.00 0.00 0.00 25 1001.9
20260508205713 70 292 18.0 32.0 0.00 0.00 0.00 25 1002.1
20260508204730 69 277 15.0 25.0 0.00 0.00 0.00 26 1002.2
20260508203726 70 326 12.0 22.0 0.00 0.00 0.00 25 1002.3
20260508202656 69 298 13.0 22.0 0.00 0.00 0.00 28 1002.6
20260508201649 69 351 17.0 29.0 0.00 0.00 0.00 27 1002.7
20260508200703 69 286 17.0 29.0 0.00 0.00 0.00 26 1002.9
20260508194518 69 280 15.0 24.0 0.00 0.00 0.00 27 1003.0
20260508193442 69 322 18.0 31.0 0.00 0.00 0.00 26 1003.1
20260508192444 68 275 19.0 31.0 0.00 0.00 0.00 28 1003.4
20260508191442 69 309 16.0 28.0 0.00 0.00 0.00 28 1003.4
20260508190453 68 302 17.0 29.0 0.00 0.00 0.00 29 1003.6
20260508185430 68 287 17.0 29.0 0.00 0.00 0.00 29 1003.9
20260508184442 68 299 14.0 24.0 0.00 0.00 0.00 29 1003.9
20260508181119 68 263 14.0 25.0 0.00 0.00 0.00 30 1004.6
20260508180132 68 276 13.0 25.0 0.00 0.00 0.00 30 1004.9
20260508175127 67 258 12.0 24.0 0.00 0.00 0.00 31 1005.2
20260508174130 67 307 14.0 23.0 0.00 0.00 0.00 32 1005.5
20260508173114 66 267 14.0 23.0 0.00 0.00 0.00 32 1005.8
20260508172054 65 272 10.0 17.0 0.00 0.00 0.00 34 1006.1
20260508171024 63 318 7.0 19.0 0.00 0.00 0.00 36 1006.1
20260508170030 63 281 7.0 19.0 0.00 0.00 0.00 37 1006.5
20260508165047 62 239 9.0 18.0 0.00 0.00 0.00 37 1006.7
20260508164027 62 313 11.0 18.0 0.00 0.00 0.00 37 1006.9
20260508163033 61 334 11.0 19.0 0.00 0.00 0.00 37 1007.0
20260508155828 60 11 12.0 21.0 0.00 0.00 0.00 39 1007.4
20260508154826 60 313 13.0 21.0 0.00 0.00 0.00 41 1007.5
20260508152610 59 288 12.0 20.0 0.00 0.00 0.00 43 1007.8
20260508151602 58 302 13.0 19.0 0.00 0.00 0.00 43 1007.8
20260508150622 57 310 13.0 20.0 0.00 0.00 0.00 45 1007.9
20260508145643 57 310 13.0 20.0 0.00 0.00 0.00 45 1007.9
20260508144620 56 0 13.0 19.0 0.00 0.00 0.00 47 1008.0
20260508140137 52 318 10.0 17.0 0.00 0.00 0.00 52 1008.1
20260508135111 50 284 9.0 14.0 0.00 0.00 0.00 56 1008.0
20260508134121 48 291 8.0 14.0 0.00 0.00 0.00 58 1008.1
20260508133044 47 311 6.0 11.0 0.00 0.00 0.00 60 1008.0
20260508132055 45 312 7.0 11.0 0.00 0.00 0.00 62 1008.0
20260508131057 44 301 7.0 10.0 0.00 0.00 0.00 63 1008.1
20260508130044 42 290 5.0 11.0 0.00 0.00 0.00 66 1008.0
20260508125050 41 293 7.0 11.0 0.00 0.00 0.00 67 1007.7
20260508122954 38 275 6.0 8.0 0.00 0.00 0.00 69 1007.5
20260508121951 37 281 6.0 8.0 0.00 0.00 0.00 70 1007.4